Regional Weather Roundup
Issued by NWS

Home | Current Version | Previous Version | Text Only | Print | Product List | Glossary Off
Versions: 1 2 3 4 5 6 7 8 9 10 11 12 13 14 15 16 17 18 19 20 21 22 23 24 25 26 27 28 29 30 31 32 33 34 35 36 37 38 39 40 41 42 43 44 45 46 47 48 49 50

000
ASUS43 KIND 241859
RWRIN

WEATHER ROUNDUP FOR INDIANA
NATIONAL WEATHER SERVICE INDIANAPOLIS IN
300 PM EDT TUE APR 24 2018

NOTE: "FAIR" INDICATES FEW OR NO CLOUDS BELOW 12,000 FEET WITH NO
SIGNIFICANT WEATHER AND/OR OBSTRUCTIONS TO VISIBILITY.

* - STATION DOES NOT REPORT WEATHER SUCH AS PRECIPITATION OR FOG.

+ - STATION NOT QUALITY CONTROLLED BY THE NATIONAL WEATHER SERVICE.
    USE DATA WITH CAUTION...ESPECIALLY DEWPOINT AND RELATIVE
    HUMIDITY OBSERVATIONS.

INZ001>003-010>013-019-020-242000-
NORTHWEST INDIANA

CITY           SKY/WX    TMP DP  RH WIND       PRES   REMARKS
GARY /AIRPORT/ PTSUNNY   52  45  76 N12       30.03S
KNOX *+        CLOUDY    59  50  72 NE8       29.99F
VALPARAISO     CLOUDY    63  52  67 N7        30.00S

$$

LMZ046-743>745-242000-
SOUTHERN LAKE MICHIGAN

STATION/POSITION TIME  TEMP    WIND        PRES    WAVE
                       AIR SEA DIR/SP/G            HT
                 (UTC) (F)     (DEG/KT/KT) (MB)    (FT)
BURNS HARBOR     1840   43      20/  4/  5 1017.3S
MICHIGAN CITY    1830   44      20/  5/  7   N/A

$$

INZ004-005-014>016-021>024-242000-
NORTH CENTRAL INDIANA

CITY           SKY/WX    TMP DP  RH WIND       PRES   REMARKS
ELKHART        PTSUNNY   61  48  63 E7        30.00F
GOSHEN         CLOUDY    58  50  75 NE12      29.99F
ROCHESTER +    CLOUDY    59  52  77 N5        29.99S
SOUTH BEND     CLOUDY    58  48  69 NE6       30.01F
WARSAW +       CLOUDY    57  50  77 E8        29.99S

$$

INZ006>009-017-018-025>027-242000-
NORTHEAST INDIANA

CITY           SKY/WX    TMP DP  RH WIND       PRES   REMARKS
FORT WAYNE     CLOUDY    56  52  86 NE10      29.98F

$$

INZ028-029-035-036-043>045-051>053-242000-
WEST CENTRAL INDIANA

CITY           SKY/WX    TMP DP  RH WIND       PRES   REMARKS
LAFAYETTE      CLOUDY    58  51  78 N10       29.96F
TERRE HAUTE    CLOUDY    58  52  80 N6        29.95F

$$

INZ030>032-037>040-046>048-054>057-064-065-242000-
CENTRAL INDIANA

CITY           SKY/WX    TMP DP  RH WIND       PRES   REMARKS
ANDERSON         N/A     55  52  88 E6        29.95F
COLUMBUS       CLOUDY    55 N/A N/A N6        29.93F
GREENWOOD *+   CLOUDY    55  53  94 NE6       29.94F
INDIANAPOLIS   DRIZZLE   56  53  90 NE9       29.94S
-EAGLE CREEK   CLOUDY    56  52  86 N6        29.94S
KOKOMO +       CLOUDY    55  53  93 NE6       29.97S FOG
MT COMFORT *+  CLOUDY    55  55 100 NE8       29.94S
SHELBYVILLE    CLOUDY    58  53  84 NE9       29.92S
ZIONSVILLE +   CLOUDY    53  53  98 E5        29.96S

$$

INZ033-034-041-042-049-050-058-059-242000-
EAST CENTRAL INDIANA

CITY           SKY/WX    TMP DP  RH WIND       PRES   REMARKS
MUNCIE         CLOUDY    57  53  86 E10       29.95S FOG

$$

INZ060-061-067>069-081>083-085>088-242000-
SOUTHWEST INDIANA

CITY           SKY/WX    TMP DP  RH WIND       PRES   REMARKS
EVANSVILLE     CLOUDY    57  55  93 VRB6      29.94S
HUNTINGBURG +  CLOUDY    57  53  86 NW8       29.93S

$$

INZ062-063-066-070>080-084-089>092-242000-
SOUTH CENTRAL AND SOUTHEAST INDIANA

CITY           SKY/WX    TMP DP  RH WIND       PRES   REMARKS
BLOOMINGTON    LGT RAIN  55  53  93 N8        29.93S
SEYMOUR +      CLOUDY    55  55 100 N3        29.91S FOG

$$





USA.gov is the U.S. government's official web portal to all federal, state and local government web resources and services.